This demonstration page uses our WeatherBlox Daily Observations layout. Learn more.

Left ArrowRight Arrow

34.16533, -84.80231

Hourly Observations for April 28, 2016

Temp ( °F °C ) Dew Point ( °F °C ) Humidity (%) Winds ( mph kmh ) Pressure ( in mb ) Visibility ( mi km ) Precip ( " mm )
12:53 am 00:53 Clear 67 19.4 60 15.6 79 79 Calm 29.83 1010 10 16 0.00 0.00
1:53 am 01:53 Clear 62 16.7 59 15 90 90 SSE 3 6 29.84 1010 10 16 0.00 0.00
2:53 am 02:53 Mostly Clear 62 16.7 59 15 90 90 Calm 29.84 1011 10 16 0.00 0.00
3:53 am 03:53 Clear 61 16.1 59 15 93 93 Calm 29.84 1010 10 16 0.00 0.00
4:31 am 04:31 Mostly Cloudy 62 16.7 60 15.6 93 93 Calm 29.88 1012 10 16 0.00 0.00
4:53 am 04:53 Cloudy 61 16.1 60 15.6 97 97 Calm 29.84 1011 10 16 0.00 0.00
5:53 am 05:53 Cloudy 62 16.7 60 15.6 93 93 Calm 29.86 1011 10 16 0.00 0.00
6:33 am 06:33 Cloudy 62 16.7 61 16.1 96 96 Calm 29.91 1013 10 16 0.00 0.00
6:53 am 06:53 Mostly Cloudy 61 16.1 60 15.6 97 97 Calm 29.88 1012 10 16 0.00 0.00
7:53 am 07:53 Cloudy 64 17.8 63 17.2 96 96 Calm 29.90 1013 10 16 0.00 0.00
8:08 am 08:08 Cloudy 66 18.9 64 17.8 93 93 VRB 3 6 29.94 1014 10 16 0.00 0.00
8:45 am 08:45 Cloudy 68 20 64 17.8 87 87 Calm 29.94 1014 10 16 0.00 0.00
8:53 am 08:53 Mostly Cloudy 68 20 64 17.8 87 87 Calm 29.91 1013 10 16 0.00 0.00
9:49 am 09:49 Mostly Cloudy 72 22 64 18 78 78 Calm 29.94 1014 10 16 0.00 0.00
9:53 am 09:53 Mostly Cloudy 71 21.7 65 18.3 81 81 VRB 5 7 29.92 1013 10 16 0.00 0.00
10:17 am 10:17 Mostly Cloudy 72 22.2 64 17.8 76 76 Calm 29.97 1015 10 16 0.00 0.00
10:53 am 10:53 Mostly Cloudy 76 24.4 64 17.8 67 67 VRB 5 7 29.93 1014 10 16 0.00 0.00
11:53 am 11:53 Mostly Sunny 77 25 62 16.7 60 60 S 6 9 29.93 1014 10 16 0.00 0.00
12:53 pm 12:53 Partly Cloudy 80 26.7 59 15 49 49 VRB 3 6 29.93 1014 10 16 0.00 0.00
1:53 pm 13:53 Partly Cloudy 80 26.7 59 15 49 49 VRB 6 9 29.91 1013 10 16 0.00 0.00
2:53 pm 14:53 Sunny 82 27.8 57 13.9 42 42 Calm 29.91 1013 10 16 0.00 0.00
3:53 pm 15:53 Sunny 84 28.9 56 13.3 38 38 VRB 7 11 29.89 1012 10 16 0.00 0.00
4:53 pm 16:53 Sunny 85 29.4 50 10 30 30 undefined N/A 29.88 1012 10 16 0.00 0.00
5:53 pm 17:53 Sunny 85 29.4 54 12.2 35 35 VRB 5 7 29.88 1012 10 16 0.00 0.00
6:53 pm 18:53 Sunny 82 27.8 53 11.7 37 37 Calm 29.89 1012 10 16 0.00 0.00
7:53 pm 19:53 Sunny 78 25.6 55 12.8 45 45 Calm 29.90 1013 10 16 0.00 0.00
8:53 pm 20:53 Clear 69 20.6 58 14.4 68 68 Calm 29.92 1013 10 16 0.00 0.00
9:53 pm 21:53 Clear 67 19.4 58 14.4 73 73 Calm 29.94 1014 10 16 0.00 0.00
10:53 pm 22:53 Clear 65 18.3 58 14.4 78 78 Calm 29.94 1014 10 16 0.00 0.00
11:53 pm 23:53 Clear 64 17.8 59 15 84 84 Calm 29.94 1014 10 16 0.00 0.00

Powered by AerisWeather